Location: Chircca
(13.7944°S, 72.0608°W)
Time: 06:21:58
(UTC+00:00)

Atlas Centaur 2 - Pass Details

Date: 14 July 2020
Orbit: 459 x 1310 km, 30.4° (Epoch: 14 August)

Event Time Altitude Azimuth Distance (km) Brightness Sun altitude
Exits shadow 08:40:24 24° 162° (SSE) 2,395 4.5 -35.8°
Drops below altitude 10° 08:44:31 10° 136° (SE) 3,230 5.5 -34.9°
Sets 08:47:47 0° 125° (SE) 4,111 6.2 -34.1°
